Regional Weather Roundup
Issued by NWS

Home | Current Version | Previous Version | Graphics & Text | Print | Product List | Glossary On
Versions: 1 2 3 4 5 6 7 8 9 10 11 12 13 14 15 16 17 18 19 20 21 22 23 24 25 26 27 28 29 30 31 32 33 34 35 36 37 38 39 40 41 42 43 44 45 46 47 48 49 50
000
ASUS43 KOAX 261402
RWRNE

WEATHER ROUNDUP FOR NEBRASKA
NATIONAL WEATHER SERVICE OMAHA NE
900 AM CDT THU MAY 26 2016

NOTES: SATELLITE DATA IS BEING USED TO AUGMENT CLOUD COVER ABOVE
       12000 FEET.
       "FAIR" INDICATES FEW OR NO CLOUDS BELOW 12,000 FEET WITH NO
       SIGNIFICANT WEATHER AND/OR OBSTRUCTIONS TO VISIBILITY.

  * THESE STATIONS DO NOT REPORT WEATHER SUCH AS RAIN...SNOW OR FOG.

NEZ001>004-019>022-054>056-261500-
NEBRASKA PANHANDLE

CITY           SKY/WX    TMP DP  RH WIND       PRES   REMARKS
SCOTTSBLUFF    SUNNY     54  41  61 W10       29.96S
ALLIANCE       CLOUDY    54  45  71 SW6       29.95R
CHADRON        SUNNY     55  45  68 SW8       29.93R
SIDNEY         CLOUDY    50  43  77 NW10      29.97F
$$

NEZ057>060-069>072-079>082-261500-
SOUTHWEST NEBRASKA

CITY           SKY/WX    TMP DP  RH WIND       PRES   REMARKS
NORTH PLATTE   PTSUNNY   58  53  84 N3        29.94R
IMPERIAL       CLOUDY    58  50  75 N14       29.93R
LEXINGTON      PTSUNNY   61  53  76 CALM      29.90S
MCCOOK         SUNNY     61  54  77 NE6       29.87F
$$

NEZ005>010-023>029-035>040-094-261500-
NORTH CENTRAL NEBRASKA

CITY           SKY/WX    TMP DP  RH WIND       PRES   REMARKS
VALENTINE      SUNNY     59  50  72 CALM      29.90R
AINSWORTH      CLOUDY    61  52  73 SE5       29.92R
BROKEN BOW     LGT RAIN  60  54  80 NE6       29.92S
ORD            CLOUDY    62  53  72 CALM      29.89S
$$

NEZ041-046>049-061>064-073>077-083>087-261500-
SOUTH CENTRAL NEBRASKA

CITY           SKY/WX    TMP DP  RH WIND       PRES   REMARKS
GRAND ISLAND   MOSUNNY   63  55  75 E9        29.91R
HASTINGS       MOSUNNY   63  55  75 E10       29.89S
KEARNEY *      CLOUDY    63  55  77 NE6       29.90S
YORK           SUNNY     64  57  77 SE9       29.90R
$$

NEZ011>018-030>034-042>045-261500-
NORTHEAST NEBRASKA

CITY           SKY/WX    TMP DP  RH WIND       PRES   REMARKS
NORFOLK        SUNNY     65  54  67 SE5       29.91R
ALBION         CLOUDY    63  54  74 E7        29.89F
BLAIR          SUNNY     70  60  72 CALM      29.89S
FREMONT        SUNNY     69  57  64 CALM      29.89S
TEKAMAH        SUNNY     67  57  70 CALM      29.88F
$$

NEZ050>053-065>068-078-088>093-261500-
SOUTHEAST NEBRASKA

CITY           SKY/WX    TMP DP  RH WIND       PRES   REMARKS
LINCOLN        MOSUNNY   68  59  73 SE7       29.88F
OMAHA EPPLEY   MOSUNNY   69  61  75 VRB3      29.88S
FALLS CITY     SUNNY     73  65  75 S3        29.86S
PLATTSMOUTH    SUNNY     71  60  70 CALM      29.88S
$$

NEZ044-045-051>053-067-261500-
OMAHA AREA

CITY           SKY/WX    TMP DP  RH WIND       PRES   REMARKS
OMAHA EPPLEY   MOSUNNY   69  61  75 VRB3      29.88S
BLAIR          SUNNY     70  60  72 CALM      29.89S
FREMONT        SUNNY     69  57  64 CALM      29.89S
OFFUTT AFB     SUNNY     69  60  74 E1        29.87S
PLATTSMOUTH    SUNNY     71  60  70 CALM      29.88S
$$




USA.gov is the U.S. government's official web portal to all federal, state and local government web resources and services.